Regional Weather Roundup
Issued by NWS

Home | Current Version | Previous Version | Text Only | Print | Product List | Glossary Off
Versions: 1 2 3 4 5 6 7 8 9 10 11 12 13 14 15 16 17 18 19 20 21 22 23 24 25 26 27 28 29 30 31 32 33 34 35 36 37 38 39 40 41 42 43 44 45 46 47 48 49 50

000
ASUS43 KBIS 240910
RWRND
NORTH DAKOTA REGIONAL WEATHER ROUNDUP
NATIONAL WEATHER SERVICE EASTERN NORTH DAKOTA/GRAND FORKS ND
400 AM CDT WED MAY 24 2017

  NOTE: "FAIR" INDICATES FEW OR NO CLOUDS BELOW 12,000 FEET WITH NO
  SIGNIFICANT WEATHER AND/OR OBSTRUCTIONS TO VISIBILITY.

NDZ001>003-009>011-017-241000-
...NORTHWEST NORTH DAKOTA...

CITY           SKY/WX    TMP DP  RH WIND       PRES   REMARKS
WILLISTON      FAIR      55  36  48 S9G18     29.74F
MINOT          FAIR      55  38  52 S13       29.81F
MINOT AFB      FAIR      53  38  56 S14       29.80F
$$

NDZ018>021-031>035-040>046-241000-
...SOUTHWEST NORTH DAKOTA...

CITY           SKY/WX    TMP DP  RH WIND       PRES   REMARKS
BISMARCK       FAIR      39  36  89 E5        29.87F
DICKINSON      FAIR      42  34  73 S12       29.81F
GARRISON         N/A     47  38  71 S12       29.83F
HETTINGER      FAIR      41  33  73 SE7       29.86F
$$

NDZ004>008-012>016-024-026-027-054-241000-
...NORTHEAST NORTH DAKOTA...

CITY           SKY/WX    TMP DP  RH WIND       PRES   REMARKS
GRAND FORKS    FAIR      42  40  92 CALM      29.87F
GRAND FORKS AF FAIR      40  39  99 CALM      29.87F
DEVILS LAKE    FAIR      48  41  76 VRB7      29.87F
$$

NDZ022-023-025-028>030-036>039-047>053-241000-
...SOUTHEAST NORTH DAKOTA...

CITY           SKY/WX    TMP DP  RH WIND       PRES   REMARKS
JAMESTOWN      FAIR      36  35  96 NW3       29.86F FOG
FARGO          FAIR      38  38 100 CALM      29.86F
WAHPETON       CLOUDY    45  41  87 NW3       29.87S
$$




USA.gov is the U.S. government's official web portal to all federal, state and local government web resources and services.